Hourly Data Report for October 09, 2013

All times are specified in Local Standard Time (LST). Add 1 hour to adjust for Daylight Saving Time where and when it is observed.

ST LEONARD CS
NEW BRUNSWICK

47°09'28.050" N
67°49'55.014" W
245.00 m
810I001
71019
WIY

Download Data

Hourly Data (October 2013)
Hourly Data Report for October 9, 2013
Temp Definition
°C
Dew Point Temp Definition
°C
Rel Hum Definition
%
Wind Dir Definition
10's deg

Wind Spd Definition
km/h
Visibility Definition
km
Stn Press Definition
kPa
Hmdx Definition


Wind Chill Definition


Weather Definition


TIME
00:00 4.6 0.9 77 27 9   99.68     LegendNANA
01:00 3.4 0.7 82 28 7   99.74     LegendNANA
02:00 2.4 0.4 87 28 4   99.76     LegendNANA
03:00 1.5 0.4 92 20 2   99.81     LegendNANA
04:00 0.5 0.1 97 15 6   99.84     LegendNANA
05:00 0.5 -0.3 94 16 4   99.93     LegendNANA
06:00 -1.0 -1.5 96 13 4   99.93   -2 LegendNANA
07:00 -1.0 -1.5 96   0   99.97     LegendNANA
08:00 3.2 1.2 87 15 6   100.02     LegendNANA
09:00 6.9 3.1 77 19 6   100.04     LegendNANA
10:00 10.4 4.1 65 24 6   100.04     LegendNANA
11:00 12.5 5.1 61 23 7   99.99     LegendNANA
12:00 13.8 4.1 52 21 15   99.93     LegendNANA
13:00 15.4 3.9 46 22 9   99.87     LegendNANA
14:00 15.8 4.0 45 21 15   99.80     LegendNANA
15:00 16.6 4.1 43 22 17   99.73     LegendNANA
16:00 16.8 4.5 44 22 15   99.66     LegendNANA
17:00 15.9 5.5 50 19 11   99.65     LegendNANA
18:00 12.9 5.3 60 19 11   99.61     LegendNANA
19:00 11.6 5.0 64 18 11   99.58     LegendNANA
20:00 11.2 4.8 65 16 6   99.57     LegendNANA
21:00 10.1 4.3 67 19 11   99.57     LegendNANA
22:00 9.9 4.3 68 17 7   99.56     LegendNANA
23:00 9.0 4.5 73 19 7   99.53     LegendNANA

Notes on Data Quality.

Legend

  • E = Estimated
  • M = Missing
  • NA = Not Available
  • ‡ = Partner data that is not subject to review by the National Climate Archives
Date modified: